TimeCDT,TemperatureF,Dew PointF,Humidity,Sea Level PressureIn,VisibilityMPH,Wind Direction,Wind SpeedMPH,Gust SpeedMPH,PrecipitationIn,Events,Conditions,WindDirDegrees,DateUTC
12:15 AM,55.4,51.8,88,29.86,10.0,West,6.9,-,N/A,,Mostly Cloudy,280,2013-05-17 05:15:00
12:35 AM,53.6,51.8,94,29.87,10.0,SW,3.5,-,N/A,,Overcast,230,2013-05-17 05:35:00
12:55 AM,53.6,51.8,94,29.87,10.0,NW,5.8,-,N/A,,Mostly Cloudy,310,2013-05-17 05:55:00
1:15 AM,53.6,51.8,94,29.87,10.0,West,5.8,-,N/A,,Partly Cloudy,260,2013-05-17 06:15:00
1:35 AM,51.8,50.0,94,29.87,10.0,WSW,4.6,-,N/A,,Clear,250,2013-05-17 06:35:00
1:55 AM,50.0,50.0,100,29.86,10.0,SW,4.6,-,N/A,,Clear,220,2013-05-17 06:55:00
2:15 AM,50.0,50.0,100,29.86,10.0,WSW,4.6,-,N/A,,Clear,240,2013-05-17 07:15:00
2:35 AM,48.2,46.4,93,29.85,10.0,SW,5.8,-,N/A,,Clear,220,2013-05-17 07:35:00
2:55 AM,48.2,46.4,93,29.85,10.0,WSW,3.5,-,N/A,,Clear,240,2013-05-17 07:55:00
3:15 AM,48.2,46.4,93,29.84,10.0,SSW,5.8,-,N/A,,Clear,210,2013-05-17 08:15:00
3:35 AM,48.2,46.4,93,29.84,10.0,SSW,3.5,-,N/A,,Clear,200,2013-05-17 08:35:00
3:55 AM,48.2,44.6,87,29.84,10.0,SSE,5.8,-,N/A,,Clear,150,2013-05-17 08:55:00
4:15 AM,48.2,46.4,93,29.85,10.0,SSE,4.6,-,N/A,,Clear,160,2013-05-17 09:15:00
4:35 AM,46.4,46.4,100,29.85,10.0,SSW,5.8,-,N/A,,Clear,210,2013-05-17 09:35:00
4:55 AM,46.4,46.4,100,29.85,10.0,WSW,4.6,-,N/A,,Clear,250,2013-05-17 09:55:00
5:15 AM,48.2,46.4,93,29.86,10.0,SSW,6.9,-,N/A,,Clear,200,2013-05-17 10:15:00
5:35 AM,48.2,46.4,93,29.86,10.0,SSW,4.6,-,N/A,,Clear,210,2013-05-17 10:35:00
5:55 AM,48.2,46.4,93,29.87,10.0,SW,4.6,-,N/A,,Clear,220,2013-05-17 10:55:00
6:15 AM,50.0,46.4,87,29.87,10.0,Calm,Calm,-,N/A,,Clear,0,2013-05-17 11:15:00
6:35 AM,50.0,46.4,87,29.87,10.0,West,4.6,-,N/A,,Clear,280,2013-05-17 11:35:00
6:55 AM,50.0,48.2,94,29.88,10.0,WNW,6.9,-,N/A,,Scattered Clouds,290,2013-05-17 11:55:00
7:15 AM,51.8,48.2,88,29.88,10.0,WSW,5.8,-,N/A,,Clear,250,2013-05-17 12:15:00
7:35 AM,53.6,48.2,82,29.89,10.0,West,4.6,-,N/A,,Clear,260,2013-05-17 12:35:00
7:55 AM,55.4,50.0,82,29.88,10.0,SSW,3.5,-,N/A,,Clear,200,2013-05-17 12:55:00
8:15 AM,57.2,50.0,77,29.89,10.0,Calm,Calm,-,N/A,,Clear,0,2013-05-17 13:15:00
8:35 AM,59.0,50.0,72,29.89,10.0,Calm,Calm,-,N/A,,Clear,0,2013-05-17 13:35:00
8:55 AM,59.0,51.8,77,29.89,10.0,Calm,Calm,-,N/A,,Clear,0,2013-05-17 13:55:00
9:15 AM,59.0,50.0,72,29.89,10.0,Calm,Calm,-,N/A,,Clear,0,2013-05-17 14:15:00
9:35 AM,62.6,53.6,72,29.89,10.0,NW,5.8,-,N/A,,Clear,320,2013-05-17 14:35:00
9:55 AM,62.6,53.6,72,29.89,10.0,Calm,Calm,-,N/A,,Clear,0,2013-05-17 14:55:00
10:15 AM,62.6,53.6,72,29.89,10.0,NNE,4.6,-,N/A,,Clear,30,2013-05-17 15:15:00
10:35 AM,64.4,51.8,64,29.88,10.0,NE,5.8,-,N/A,,Clear,40,2013-05-17 15:35:00
10:55 AM,64.4,53.6,68,29.88,10.0,ENE,10.4,-,N/A,,Clear,60,2013-05-17 15:55:00
11:15 AM,66.2,53.6,64,29.89,10.0,NE,10.4,-,N/A,,Clear,40,2013-05-17 16:15:00
11:35 AM,64.4,53.6,68,29.89,10.0,ENE,10.4,-,N/A,,Clear,60,2013-05-17 16:35:00
11:55 AM,66.2,53.6,64,29.88,10.0,NNE,9.2,-,N/A,,Clear,30,2013-05-17 16:55:00
12:15 PM,68.0,53.6,60,29.88,10.0,ENE,11.5,18.4,N/A,,Partly Cloudy,60,2013-05-17 17:15:00
12:35 PM,66.2,53.6,64,29.88,10.0,East,4.6,-,N/A,,Partly Cloudy,90,2013-05-17 17:35:00
12:55 PM,68.0,53.6,60,29.87,10.0,East,12.7,19.6,N/A,,Partly Cloudy,90,2013-05-17 17:55:00
1:15 PM,68.0,53.6,60,29.86,10.0,ENE,11.5,-,N/A,,Clear,70,2013-05-17 18:15:00
1:35 PM,66.2,53.6,64,29.86,10.0,East,12.7,16.1,N/A,,Clear,80,2013-05-17 18:35:00
1:55 PM,68.0,53.6,60,29.84,10.0,East,11.5,-,N/A,,Clear,100,2013-05-17 18:55:00
2:15 PM,68.0,53.6,60,29.85,10.0,NE,11.5,17.3,N/A,,Clear,50,2013-05-17 19:15:00
2:35 PM,69.8,53.6,56,29.83,10.0,ENE,17.3,27.6,N/A,Thunderstorm,Clear,70,2013-05-17 19:35:00
2:55 PM,66.2,51.8,60,29.83,10.0,East,11.5,-,N/A,Thunderstorm,Clear,90,2013-05-17 19:55:00
3:15 PM,62.6,57.2,82,29.83,3.0,ESE,16.1,-,0.04,Rain,Light Rain,110,2013-05-17 20:15:00
3:35 PM,62.6,55.4,77,29.82,3.0,ENE,15.0,-,0.07,Rain-Thunderstorm,Light Rain,70,2013-05-17 20:35:00
3:55 PM,62.6,57.2,82,29.85,10.0,SSE,5.8,16.1,0.09,Thunderstorm,Thunderstorm,150,2013-05-17 20:55:00
4:15 PM,64.4,57.2,77,29.81,10.0,East,9.2,20.7,N/A,Thunderstorm,Unknown,100,2013-05-17 21:15:00
4:35 PM,62.6,57.2,82,29.79,3.0,East,16.1,-,0.02,Rain-Thunderstorm,Rain,90,2013-05-17 21:35:00
4:55 PM,64.4,57.2,77,29.79,2.5,NE,9.2,-,0.06,Rain-Thunderstorm,Rain,50,2013-05-17 21:55:00
5:15 PM,59.0,57.2,94,29.78,1.0,NE,18.4,31.1,0.26,Rain-Thunderstorm,Heavy Rain,50,2013-05-17 22:15:00
5:35 PM,59.0,57.2,94,29.79,5.0,East,10.4,20.7,0.26,Rain-Thunderstorm,Light Thunderstorms and Rain,100,2013-05-17 22:35:00
5:55 PM,62.6,57.2,82,29.78,10.0,ESE,10.4,-,0.28,,Unknown,110,2013-05-17 22:55:00
6:15 PM,59.0,55.4,88,29.78,9.0,ENE,10.4,-,N/A,Rain,Light Rain,60,2013-05-17 23:15:00
6:35 PM,59.0,57.2,94,29.78,9.0,ENE,5.8,-,N/A,,Unknown,60,2013-05-17 23:35:00
6:55 PM,59.0,57.2,94,29.77,8.0,Calm,Calm,-,0.01,Rain,Light Rain,0,2013-05-17 23:55:00
7:15 PM,60.8,57.2,88,29.76,10.0,East,6.9,-,N/A,,Unknown,100,2013-05-18 00:15:00
7:35 PM,62.6,57.2,82,29.76,10.0,SE,9.2,-,N/A,Thunderstorm,Unknown,130,2013-05-18 00:35:00
7:55 PM,62.6,57.2,82,29.75,10.0,East,10.4,-,N/A,Thunderstorm,Unknown,100,2013-05-18 00:55:00
8:15 PM,62.6,55.4,77,29.75,10.0,East,10.4,-,N/A,Thunderstorm,Unknown,100,2013-05-18 01:15:00
8:35 PM,62.6,55.4,77,29.76,10.0,SE,3.5,-,N/A,Thunderstorm,Thunderstorm,130,2013-05-18 01:35:00
8:55 PM,62.6,55.4,77,29.79,10.0,NW,6.9,-,N/A,Thunderstorm,Unknown,320,2013-05-18 01:55:00
9:15 PM,60.8,55.4,82,29.79,10.0,NNW,10.4,-,N/A,Thunderstorm,Unknown,330,2013-05-18 02:15:00
9:35 PM,62.6,55.4,77,29.82,10.0,North,8.1,-,N/A,Rain-Thunderstorm,Light Rain,350,2013-05-18 02:35:00
9:55 PM,59.0,55.4,88,29.85,8.0,South,10.4,-,0.06,Rain-Thunderstorm,Light Thunderstorms and Rain,180,2013-05-18 02:55:00
10:15 PM,60.8,55.4,82,29.86,10.0,SSW,8.1,-,N/A,Thunderstorm,Unknown,210,2013-05-18 03:15:00
10:35 PM,57.2,51.8,82,29.86,1.8,SE,9.2,-,0.53,Rain-Thunderstorm,Heavy Thunderstorms and Rain,140,2013-05-18 03:35:00
10:55 PM,55.4,50.0,82,29.86,10.0,South,4.6,-,0.89,Rain-Thunderstorm,Light Thunderstorms and Rain,170,2013-05-18 03:55:00
11:15 PM,55.4,51.8,88,29.86,10.0,Calm,Calm,-,N/A,Rain-Thunderstorm,Light Rain,0,2013-05-18 04:15:00
11:35 PM,53.6,50.0,88,29.80,10.0,NE,15.0,20.7,N/A,Thunderstorm,Unknown,40,2013-05-18 04:35:00
11:55 PM,57.2,48.2,72,29.79,10.0,NNW,3.5,-,N/A,,Unknown,330,2013-05-18 04:55:00